This is the latest recevied weather packets stored in our database for station/object JO1YDG-13. If no packets are shown the sender has not sent any weather packets the latest 10 day(s).
| Time | Temp. | Humidity | Pressure | Rain* | Wind** | Luminosity | Snow |
|---|---|---|---|---|---|---|---|
| 1777872975 | 29.44° C | 20% | 967.7 hPa | 0 mm | - | - | - |
| 1777872675 | 30° C | 18% | 967.7 hPa | 0 mm | - | - | - |
| 1777872376 | 30.56° C | 23% | 967.4 hPa | 0 mm | - | - | - |
| 1777872076 | 30° C | 20% | 967.4 hPa | 0 mm | - | - | - |
| 1777871776 | 30° C | 21% | 967.4 hPa | 0 mm | - | - | - |
| 1777871475 | 29.44° C | 23% | 967.3 hPa | 0 mm | - | - | - |
| 1777871175 | 29.44° C | 22% | 967.3 hPa | 0 mm | - | - | - |
| 1777870875 | 30° C | 21% | 967.5 hPa | 0 mm | - | - | - |
| 1777870577 | 29.44° C | 22% | 967.5 hPa | 0 mm | - | - | - |
| 1777870277 | 30.56° C | 21% | 967.5 hPa | 0 mm | - | - | - |
| 1777869977 | 30° C | 21% | 967.3 hPa | 0 mm | - | - | - |
| 1777869677 | 29.44° C | 21% | 967.3 hPa | 0 mm | - | - | - |
| 1777869376 | 30° C | 22% | 967.3 hPa | 0 mm | - | - | - |
| 1777869076 | 30° C | 22% | 967.3 hPa | 0 mm | - | - | - |
| 1777868776 | 30° C | 23% | 967.4 hPa | 0 mm | - | - | - |
| 1777868476 | 30° C | 23% | 967.4 hPa | 0 mm | - | - | - |
| 1777868176 | 30° C | 24% | 967.4 hPa | 0 mm | - | - | - |
| 1777867876 | 29.44° C | 24% | 967.1 hPa | 0 mm | - | - | - |
| 1777867575 | 30.56° C | 25% | 967.1 hPa | 0 mm | - | - | - |
| 1777867275 | 30° C | 24% | 967 hPa | 0 mm | - | - | - |
| 1777866975 | 30° C | 23% | 967 hPa | 0 mm | - | - | - |
| 1777866677 | 30° C | 23% | 967 hPa | 0 mm | - | - | - |
| 1777865775 | 30.56° C | 25% | 967.2 hPa | 0 mm | - | - | - |
| 1777865477 | 30° C | 28% | 967.2 hPa | 0 mm | - | - | - |
| 1777863376 | 30° C | 29% | 967.7 hPa | 0 mm | - | - | - |
* Rain latest hour (hover to see other rain measurements)
** Current wind speed in m/s (hover to see current wind gust speed)